Meteo orario Alihe

Oggi, 25 Ottobre, Domenica

Tempo Temperatura Precipitazioni Vento Pressione Umidità
00:00 -1°C° 0 mm 1 m/s 717 mm Hg 84%
01:00 -1°C° 0 mm 1 m/s 718 mm Hg 83%
02:00 -1°C° 0 mm 1 m/s 718 mm Hg 83%
03:00 -1°C° 0 mm 1 m/s 718 mm Hg 83%
04:00 -1°C° 0 mm 1 m/s 719 mm Hg 82%
05:00 -1°C° 0 mm 1 m/s 719 mm Hg 81%
06:00 0°C° 0 mm 1 m/s 719 mm Hg 77%
07:00 0°C° 0 mm 1 m/s 719 mm Hg 73%
08:00 +1°C° 0 mm 1 m/s 720 mm Hg 69%
09:00 +3°C° 0 mm 1 m/s 720 mm Hg 61%
10:00 +5°C° 0 mm 1 m/s 720 mm Hg 54%
11:00 +7°C° 0 mm 1 m/s 720 mm Hg 47%
12:00 +8°C° 0 mm 1 m/s 720 mm Hg 47%
13:00 +7°C° 0 mm 0 m/s 719 mm Hg 48%
14:00 +7°C° 0 mm 0 m/s 719 mm Hg 49%
15:00 +5°C° 0 mm 0 m/s 719 mm Hg 56%
16:00 +3°C° 0 mm 0 m/s 719 mm Hg 64%
17:00 +1°C° 0 mm 0 m/s 719 mm Hg 71%
18:00 +1°C° 0 mm 0 m/s 719 mm Hg 72%
19:00 +1°C° 0 mm 0 m/s 719 mm Hg 73%
20:00 0°C° 0 mm 0 m/s 720 mm Hg 75%
21:00 0°C° 0 mm 0 m/s 720 mm Hg 75%
22:00 0°C° 0 mm 0 m/s 720 mm Hg 76%
23:00 0°C° 0 mm 0 m/s 720 mm Hg 77%

Domani, 26 Ottobre, Lunedi

Tempo Temperatura Precipitazioni Vento Pressione Umidità
00:00 0°C° 0 mm 0 m/s 719 mm Hg 78%
01:00 0°C° 0 mm 0 m/s 719 mm Hg 79%
02:00 0°C° 0 mm 0 m/s 719 mm Hg 80%
03:00 0°C° 0 mm 0 m/s 719 mm Hg 81%
04:00 -1°C° 0 mm 0 m/s 718 mm Hg 82%
05:00 -1°C° 0 mm 0 m/s 718 mm Hg 82%
06:00 +1°C° 0 mm 1 m/s 718 mm Hg 81%
07:00 +1°C° 0 mm 1 m/s 718 mm Hg 79%
08:00 +2°C° 0 mm 1 m/s 717 mm Hg 78%
09:00 +3°C° 0 mm 1 m/s 717 mm Hg 73%
10:00 +4°C° 0 mm 1 m/s 717 mm Hg 69%
11:00 +5°C° 0 mm 2 m/s 716 mm Hg 64%
12:00 +5°C° 0 mm 2 m/s 716 mm Hg 65%
13:00 +5°C° 0 mm 2 m/s 715 mm Hg 66%
14:00 +4°C° 0 mm 3 m/s 714 mm Hg 67%
15:00 +4°C° 0 mm 2 m/s 714 mm Hg 74%
16:00 +2°C° 0 mm 2 m/s 714 mm Hg 81%
17:00 +2°C° 0 mm 1 m/s 714 mm Hg 88%
18:00 +2°C° 0 mm 1 m/s 714 mm Hg 89%
19:00 +1°C° 0 mm 1 m/s 714 mm Hg 90%
20:00 +1°C° 0 mm 1 m/s 713 mm Hg 92%
21:00 0°C° 0 mm 1 m/s 713 mm Hg 92%
22:00 -1°C° 0 mm 0 m/s 713 mm Hg 92%
23:00 -1°C° 0 mm 0 m/s 713 mm Hg 93%

Dopodomani, 27 Ottobre, Martedi

Tempo Temperatura Precipitazioni Vento Pressione Umidità
00:00 -1°C° 0 mm 0 m/s 713 mm Hg 93%
01:00 -1°C° 0 mm 0 m/s 713 mm Hg 94%
02:00 -1°C° 0 mm 0 m/s 712 mm Hg 94%
03:00 -1°C° 0.1 mm 0 m/s 712 mm Hg 95%
04:00 -1°C° 0.1 mm 0 m/s 712 mm Hg 96%
05:00 -1°C° 0.1 mm 0 m/s 712 mm Hg 97%
06:00 0°C° 0.2 mm 0 m/s 712 mm Hg 96%
07:00 0°C° 0.2 mm 0 m/s 712 mm Hg 95%
08:00 0°C° 0.2 mm 0 m/s 712 mm Hg 94%
09:00 +1°C° 0.5 mm 0 m/s 712 mm Hg 94%
10:00 +1°C° 0.5 mm 0 m/s 712 mm Hg 94%
11:00 +2°C° 0.5 mm 0 m/s 712 mm Hg 95%
12:00 +1°C° 0.5 mm 0 m/s 712 mm Hg 96%
13:00 +1°C° 0.5 mm 0 m/s 712 mm Hg 96%
14:00 +1°C° 0.5 mm 0 m/s 712 mm Hg 97%
15:00 +1°C° 0.5 mm 0 m/s 712 mm Hg 98%
16:00 +1°C° 0.5 mm 0 m/s 712 mm Hg 98%
17:00 +1°C° 0.5 mm 0 m/s 713 mm Hg 99%
18:00 +2°C° 0.6 mm 1 m/s 713 mm Hg 99%
19:00 +2°C° 0.6 mm 1 m/s 713 mm Hg 98%
20:00 +2°C° 0.6 mm 1 m/s 714 mm Hg 98%
21:00 +2°C° 0.5 mm 1 m/s 714 mm Hg 98%
22:00 +2°C° 0.5 mm 1 m/s 714 mm Hg 98%
23:00 +2°C° 0.5 mm 1 m/s 714 mm Hg 98%

28 Ottobre, Mercoledi

Tempo Temperatura Precipitazioni Vento Pressione Umidità
00:00 -1°C° 0.3 mm 2 m/s 715 mm Hg 98%
01:00 -1°C° 0.3 mm 2 m/s 715 mm Hg 97%
02:00 -1°C° 0.3 mm 2 m/s 715 mm Hg 97%
03:00 -2°C° 0.4 mm 2 m/s 715 mm Hg 97%
04:00 -2°C° 0.4 mm 2 m/s 716 mm Hg 96%
05:00 -2°C° 0.4 mm 2 m/s 716 mm Hg 96%
06:00 -2°C° 0.2 mm 2 m/s 717 mm Hg 95%
07:00 -2°C° 0.2 mm 3 m/s 717 mm Hg 93%
08:00 -2°C° 0.2 mm 3 m/s 718 mm Hg 91%
09:00 -1°C° 0 mm 3 m/s 718 mm Hg 88%
10:00 0°C° 0 mm 3 m/s 719 mm Hg 85%
11:00 0°C° 0 mm 3 m/s 719 mm Hg 82%
12:00 +1°C° 0 mm 3 m/s 719 mm Hg 81%
13:00 +1°C° 0 mm 3 m/s 720 mm Hg 81%
14:00 +1°C° 0 mm 3 m/s 720 mm Hg 80%
15:00 +1°C° 0 mm 2 m/s 720 mm Hg 83%
16:00 -1°C° 0 mm 2 m/s 721 mm Hg 87%
17:00 0°C° 0 mm 1 m/s 721 mm Hg 90%
18:00 -1°C° 0 mm 1 m/s 721 mm Hg 90%
19:00 -1°C° 0 mm 1 m/s 722 mm Hg 91%
20:00 -2°C° 0 mm 1 m/s 722 mm Hg 91%
21:00 -2°C° 0 mm 1 m/s 723 mm Hg 91%
22:00 -3°C° 0 mm 1 m/s 723 mm Hg 91%
23:00 -4°C° 0 mm 0 m/s 723 mm Hg 91%

29 Ottobre, Giovedi

Tempo Temperatura Precipitazioni Vento Pressione Umidità
00:00 -3°C° 0 mm 1 m/s 723 mm Hg 91%
01:00 -3°C° 0 mm 1 m/s 723 mm Hg 92%
02:00 -3°C° 0 mm 1 m/s 724 mm Hg 92%
03:00 -3°C° 0 mm 1 m/s 724 mm Hg 92%
04:00 -4°C° 0 mm 1 m/s 724 mm Hg 92%
05:00 -4°C° 0 mm 1 m/s 724 mm Hg 92%
06:00 -3°C° 0 mm 1 m/s 724 mm Hg 90%
07:00 -2°C° 0 mm 1 m/s 724 mm Hg 88%
08:00 -2°C° 0 mm 1 m/s 724 mm Hg 86%
09:00 0°C° 0 mm 1 m/s 724 mm Hg 82%
10:00 +1°C° 0 mm 1 m/s 724 mm Hg 77%
11:00 +3°C° 0 mm 1 m/s 724 mm Hg 72%
12:00 +3°C° 0 mm 1 m/s 724 mm Hg 71%
13:00 +4°C° 0 mm 1 m/s 723 mm Hg 70%
14:00 +4°C° 0 mm 1 m/s 723 mm Hg 69%
15:00 +3°C° 0 mm 1 m/s 723 mm Hg 74%
16:00 +1°C° 0 mm 1 m/s 723 mm Hg 79%
17:00 0°C° 0 mm 1 m/s 723 mm Hg 84%
18:00 -1°C° 0 mm 0 m/s 723 mm Hg 84%
19:00 -1°C° 0 mm 0 m/s 723 mm Hg 84%
20:00 -1°C° 0 mm 0 m/s 723 mm Hg 84%
21:00 -2°C° 0 mm 0 m/s 723 mm Hg 84%
22:00 -2°C° 0 mm 0 m/s 723 mm Hg 84%
23:00 -2°C° 0 mm 0 m/s 722 mm Hg 84%

30 Ottobre, Venerdi

Tempo Temperatura Precipitazioni Vento Pressione Umidità
00:00 -3°C° 0 mm 0 m/s 722 mm Hg 83%
01:00 -3°C° 0 mm 0 m/s 722 mm Hg 83%
02:00 -3°C° 0 mm 0 m/s 721 mm Hg 82%
03:00 -3°C° 0 mm 0 m/s 721 mm Hg 81%
04:00 -3°C° 0 mm 0 m/s 721 mm Hg 81%
05:00 -3°C° 0 mm 0 m/s 720 mm Hg 80%
06:00 -3°C° 0 mm 0 m/s 720 mm Hg 78%
07:00 -2°C° 0 mm 0 m/s 720 mm Hg 76%
08:00 -1°C° 0 mm 0 m/s 720 mm Hg 73%
09:00 +1°C° 0 mm 1 m/s 719 mm Hg 70%
10:00 +2°C° 0 mm 1 m/s 719 mm Hg 66%
11:00 +4°C° 0 mm 1 m/s 718 mm Hg 63%
12:00 +4°C° 0 mm 1 m/s 718 mm Hg 65%
13:00 +4°C° 0 mm 1 m/s 717 mm Hg 68%
14:00 +4°C° 0 mm 1 m/s 717 mm Hg 70%
15:00 +3°C° 0 mm 1 m/s 716 mm Hg 75%
16:00 +2°C° 0 mm 1 m/s 716 mm Hg 79%
17:00 0°C° 0 mm 1 m/s 716 mm Hg 84%
18:00 0°C° 0 mm 1 m/s 716 mm Hg 84%
19:00 0°C° 0 mm 1 m/s 716 mm Hg 84%
20:00 -2°C° 0 mm 0 m/s 716 mm Hg 84%
21:00 -2°C° 0 mm 0 m/s 716 mm Hg 84%
22:00 -1°C° 0 mm 1 m/s 716 mm Hg 85%
23:00 -1°C° 0 mm 1 m/s 716 mm Hg 85%
Mostrare altro

Abbiamo bisogno del tuo consenso

Meteoprog e i nostri fornitori di servizi possono memorizzare e accedere a dati personali come cookie, identificatori di dispositivi o altre tecnologie simili sul tuo dispositivo e possono elaborare tali dati per personalizzare i contenuti e gli annunci, nonché fornire funzionalità dei social media e analizzarne il traffico.

  • Archiviare e/o accedere alle informazioni sul tuo dispositivo

    Cookie, identificatori di dispositivi o altre informazioni possono essere memorizzati o resi accessibili sul tuo dispositivo per le finalità sopra indicate.

  • Annunci e contenuti personalizzati, misurazione di annunci e contenuti, approfondimenti sul pubblico e sviluppo di prodotti

    Gli annunci e i contenuti possono essere personalizzati in base a un profilo. È possibile aggiungere più dati per personalizzare meglio annunci e contenuti. È possibile misurare il rendimento degli annunci e dei contenuti. È possibile ricavare informazioni sul pubblico che ha visto gli annunci e i contenuti. Tali dati possono essere utilizzati per sviluppare o migliorare l'esperienza, i sistemi e il software dell'utente.

Cliccando su “Accetto”, acconsenti all'uso di cookie, identificatori di dispositivo, web beacon o altre tecnologie simili. Puoi modificare le impostazioni nel browser del tuo dispositivo.

Per determinati scopi, è possibile fare affidamento su interessi legali, piuttosto che sul consenso. Puoi approfondire questo argomento consultando la nostra Informativa sulla privacy e sui cookie.